Drummond Island, MI

3:41 PM EST on January 18, 2017 (GMT -0500)
Drummond Island

Weather History for KDRM - March, 2013

Change the Weather History Date:

Tuesday, March 26, 2013

  Actual Average (KCIU) Record (KCIU)
Temperature  
Mean Temperature 36 °F -  
Max Temperature 40 °F 39 °F 51 °F (2007)
Min Temperature 32 °F 18 °F -4 °F (2014)
Degree Days  
Heating Degree Days 29    
Moisture  
Dew Point 26 °F    
Average Humidity 71    
Maximum Humidity 88    
Minimum Humidity 46    
Precipitation  
Precipitation 0.00 in - - ()
Sea Level Pressure  
Sea Level Pressure 29.99 in    
Wind  
Wind Speed 6 mph (NW)    
Max Wind Speed 13 mph    
Max Gust Speed 22 mph    
Visibility 10 miles    
Events      
Averages and records for this station are not official NWS values.
T = Trace of Precipitation, MM = Missing Value Source: NWS Daily Summary

Daily Weather History Graph

Daily Weather History Graph

Search for Another Location

Airport or City:

Trip Planner

Search our weather history database for the weather conditions in past years. The results will help you decide how hot, cold, wet, or windy it might be!

Date:

Astronomy

Mar. 26, 2013 Rise Set
Actual Time 7:25 AM EDT 7:55 PM EDT
Civil Twilight 6:55 AM EDT 8:25 PM EDT
Nautical Twilight 6:20 AM EDT 9:01 PM EDT
Astronomical Twilight 5:43 AM EDT 9:38 PM EDT
Moon 7:32 PM EDT (3/26) 6:43 AM EDT (3/26)
Length of Visible Light 13h 29m
Length of Day
12h 29m
Waxing Gibbous, 99% of the Moon is Illuminated
Mar 26
Waxing Gibbous
Mar 27
Full
Apr 3
Last Quarter
Apr 10
New
Apr 18
First Quarter

Hourly Weather History & Observations

Time (EDT) Temp. Windchill Dew Point Humidity Pressure Visibility Wind Dir Wind Speed Gust Speed Precip Events Conditions
12:16 AM 34.7 °F 29.6 °F 27.9 °F 76% 29.95 in 10.0 mi North 5.8 mph - N/A   Overcast
12:37 AM 34.3 °F 29.2 °F 28.0 °F 78% 29.95 in 10.0 mi North 5.8 mph - N/A   Overcast
12:56 AM 34.2 °F 29.0 °F 28.2 °F 79% 29.95 in 10.0 mi North 5.8 mph - N/A   Overcast
1:17 AM 34.2 °F 30.0 °F 28.2 °F 79% 29.94 in 10.0 mi North 4.6 mph - N/A   Overcast
1:37 AM 34.3 °F 29.2 °F 28.4 °F 79% 29.95 in 10.0 mi North 5.8 mph - N/A   Overcast
1:56 AM 34.0 °F 28.8 °F 28.4 °F 80% 29.95 in 10.0 mi North 5.8 mph - N/A   Overcast
2:17 AM 33.8 °F 30.8 °F 28.4 °F 81% 29.95 in 10.0 mi North 3.5 mph - N/A   Overcast
2:37 AM 34.0 °F 29.8 °F 28.4 °F 80% 29.95 in 10.0 mi NNW 4.6 mph - N/A   Overcast
2:56 AM 34.7 °F 30.6 °F 28.2 °F 77% 29.96 in 10.0 mi NNW 4.6 mph - N/A   Overcast
3:17 AM 34.7 °F 29.6 °F 28.2 °F 77% 29.96 in 10.0 mi NNW 5.8 mph - N/A   Overcast
3:37 AM 34.2 °F 30.0 °F 28.2 °F 79% 29.96 in 10.0 mi North 4.6 mph - N/A   Overcast
3:56 AM 34.3 °F 30.2 °F 28.2 °F 78% 29.96 in 10.0 mi NNW 4.6 mph - N/A   Overcast
4:17 AM 34.0 °F 29.8 °F 28.2 °F 79% 29.96 in 10.0 mi NNW 4.6 mph - N/A   Overcast
4:36 AM 34.0 °F 28.8 °F 28.2 °F 79% 29.96 in 10.0 mi NNW 5.8 mph - N/A   Overcast
4:57 AM 34.0 °F 29.8 °F 28.2 °F 79% 29.96 in 10.0 mi NNW 4.6 mph - N/A   Overcast
5:17 AM 33.8 °F 29.6 °F 28.0 °F 79% 29.96 in 10.0 mi NNW 4.6 mph - N/A   Overcast
5:36 AM 33.8 °F 30.8 °F 27.9 °F 79% 29.96 in 10.0 mi NNW 3.5 mph - N/A   Overcast
5:57 AM 33.4 °F 30.4 °F 27.7 °F 79% 29.96 in 10.0 mi NNW 3.5 mph - N/A   Overcast
6:16 AM 32.9 °F - 27.5 °F 81% 29.96 in 10.0 mi Calm Calm - N/A   Overcast
6:37 AM 32.5 °F 29.3 °F 27.5 °F 82% 29.97 in 10.0 mi NW 3.5 mph - N/A   Overcast
6:57 AM 32.4 °F 29.1 °F 27.5 °F 82% 29.98 in 10.0 mi NW 3.5 mph - N/A   Overcast
7:16 AM 32.2 °F - 27.3 °F 82% 29.98 in 10.0 mi Calm Calm - N/A   Overcast
7:37 AM 32.2 °F 28.9 °F 26.6 °F 80% 29.99 in 10.0 mi NNW 3.5 mph - N/A   Overcast
7:57 AM 32.9 °F 28.5 °F 26.2 °F 76% 30.00 in 10.0 mi NNW 4.6 mph - N/A   Overcast
8:16 AM 32.9 °F 28.5 °F 25.2 °F 73% 30.00 in 10.0 mi North 4.6 mph - N/A   Scattered Clouds
8:37 AM 32.9 °F 28.5 °F 24.4 °F 71% 30.00 in 10.0 mi North 4.6 mph - N/A   Clear
8:56 AM 33.1 °F 26.9 °F 23.5 °F 68% 30.00 in 10.0 mi NNW 6.9 mph - N/A   Clear
9:17 AM 33.8 °F 28.6 °F 23.0 °F 65% 30.00 in 10.0 mi North 5.8 mph - N/A   Clear
9:37 AM 33.8 °F 27.7 °F 22.6 °F 64% 30.00 in 10.0 mi North 6.9 mph - N/A   Clear
9:56 AM 34.0 °F 28.8 °F 23.0 °F 64% 30.01 in 10.0 mi NNW 5.8 mph - N/A   Clear
10:17 AM 34.7 °F 26.9 °F 22.1 °F 60% 30.01 in 10.0 mi North 10.4 mph - N/A   Clear
10:37 AM 35.8 °F 29.4 °F 22.3 °F 58% 30.01 in 10.0 mi NNW 8.1 mph - N/A   Clear
10:56 AM 36.0 °F 28.5 °F 22.1 °F 57% 30.01 in 10.0 mi North 10.4 mph 16.1 mph N/A   Clear
11:17 AM 36.5 °F 30.3 °F 22.1 °F 56% 30.01 in 10.0 mi North 8.1 mph - N/A   Clear
11:37 AM 37.0 °F 30.4 °F 21.9 °F 54% 30.02 in 10.0 mi North 9.2 mph - N/A   Clear
11:56 AM 37.6 °F 30.5 °F 21.4 °F 52% 30.02 in 10.0 mi North 10.4 mph - N/A   Scattered Clouds
12:17 PM 37.6 °F 32.3 °F 21.4 °F 52% 30.02 in 10.0 mi North 6.9 mph - N/A   Overcast
12:36 PM 38.7 °F 31.4 °F 20.3 °F 48% 30.01 in 10.0 mi North 11.5 mph - N/A   Mostly Cloudy
12:57 PM 39.0 °F 34.0 °F 20.7 °F 48% 30.01 in 10.0 mi North 6.9 mph - N/A   Overcast
1:16 PM 39.2 °F 34.2 °F 20.3 °F 47% 30.01 in 10.0 mi North 6.9 mph - N/A   Overcast
1:37 PM 40.3 °F 36.3 °F 20.7 °F 46% 30.00 in 10.0 mi WNW 5.8 mph - N/A   Mostly Cloudy
1:56 PM 40.1 °F 34.1 °F 25.7 °F 56% 30.00 in 10.0 mi WNW 9.2 mph - N/A   Mostly Cloudy
2:16 PM 39.4 °F 34.5 °F 25.9 °F 58% 30.00 in 10.0 mi West 6.9 mph 17.3 mph N/A   Scattered Clouds
2:37 PM 38.5 °F 31.6 °F 26.1 °F 61% 30.00 in 10.0 mi WNW 10.4 mph 20.7 mph N/A   Clear
2:56 PM 38.5 °F 31.1 °F 25.7 °F 60% 30.00 in 10.0 mi WNW 11.5 mph 21.9 mph N/A   Clear
3:17 PM 39.2 °F 33.6 °F 26.1 °F 59% 29.99 in 10.0 mi WNW 8.1 mph 16.1 mph N/A   Clear
3:37 PM 38.1 °F 30.2 °F 25.9 °F 61% 29.99 in 10.0 mi WNW 12.7 mph 19.6 mph N/A   Scattered Clouds
3:56 PM 37.8 °F 32.5 °F 26.4 °F 64% 29.99 in 10.0 mi WNW 6.9 mph 19.6 mph N/A   Clear
4:17 PM 37.8 °F 31.3 °F 26.2 °F 63% 29.99 in 10.0 mi WNW 9.2 mph 19.6 mph N/A   Clear
4:37 PM 37.4 °F 29.8 °F 26.6 °F 65% 29.99 in 10.0 mi WNW 11.5 mph 20.7 mph N/A   Clear
4:56 PM 37.4 °F 30.3 °F 26.2 °F 64% 29.99 in 10.0 mi WNW 10.4 mph 21.9 mph N/A   Clear
5:17 PM 37.9 °F 31.5 °F 26.6 °F 64% 29.99 in 10.0 mi WNW 9.2 mph 18.4 mph N/A   Clear
5:37 PM 37.4 °F 29.8 °F 26.8 °F 66% 29.99 in 10.0 mi West 11.5 mph 18.4 mph N/A   Clear
5:56 PM 37.0 °F 30.4 °F 27.1 °F 67% 29.99 in 10.0 mi WNW 9.2 mph - N/A   Clear
6:17 PM 37.4 °F 30.3 °F 26.8 °F 66% 29.99 in 10.0 mi WNW 10.4 mph - N/A   Scattered Clouds
6:36 PM 37.4 °F 31.4 °F 26.4 °F 65% 30.00 in 10.0 mi WNW 8.1 mph - N/A   Overcast
6:56 PM 36.9 °F 30.7 °F 26.1 °F 65% 30.00 in 10.0 mi NW 8.1 mph - N/A   Overcast
7:17 PM 36.5 °F 29.7 °F 26.1 °F 66% 30.01 in 10.0 mi WNW 9.2 mph 16.1 mph N/A   Overcast
7:36 PM 35.6 °F 29.2 °F 26.4 °F 69% 30.01 in 10.0 mi WNW 8.1 mph 17.3 mph N/A   Overcast
7:57 PM 34.7 °F 28.1 °F 27.3 °F 74% 30.02 in 10.0 mi WNW 8.1 mph - N/A   Overcast
8:16 PM 34.2 °F 27.5 °F 27.5 °F 77% 30.02 in 10.0 mi WNW 8.1 mph - N/A   Overcast
8:36 PM 33.8 °F 27.7 °F 27.5 °F 78% 30.03 in 10.0 mi WNW 6.9 mph - N/A   Overcast
8:57 PM 33.4 °F 29.1 °F 27.7 °F 79% 30.03 in 10.0 mi WNW 4.6 mph - N/A   Overcast
9:16 PM 33.4 °F 27.3 °F 27.7 °F 79% 30.03 in 10.0 mi WNW 6.9 mph - N/A   Overcast
9:37 PM 33.3 °F 26.4 °F 28.0 °F 81% 30.03 in 10.0 mi WNW 8.1 mph - N/A   Overcast
9:57 PM 33.3 °F 27.9 °F 28.2 °F 82% 30.04 in 10.0 mi WNW 5.8 mph - N/A   Overcast
10:16 PM 33.3 °F 27.9 °F 28.4 °F 82% 30.04 in 10.0 mi WNW 5.8 mph - N/A   Overcast
10:37 PM 33.4 °F - 28.4 °F 82% 30.04 in 10.0 mi Calm Calm - N/A   Overcast
10:57 PM 33.1 °F - 28.8 °F 84% 30.04 in 10.0 mi Calm Calm - N/A   Overcast
11:16 PM 32.9 °F 29.8 °F 29.1 °F 86% 30.04 in 10.0 mi West 3.5 mph - N/A   Overcast
11:37 PM 33.1 °F - 29.3 °F 86% 30.04 in 10.0 mi Calm Calm - N/A   Overcast
11:57 PM 32.5 °F - 29.3 °F 88% 30.03 in 10.0 mi Calm Calm - N/A   Overcast